{"data":{"norad_id":51867,"epoch":"2026-09-19T11:13:52.376448Z","epoch_age_seconds":141047,"freshness":"FRESH","line1":"1 51867U 22022R   26262.46796732  .00000613  00000+0  28477-4 0  9998","line2":"2 51867  53.1624 208.2569 0001632  73.9882 286.1301 15.35397881252517","mean_motion":15.35397881,"eccentricity":0.0001632,"inclination_deg":53.1624,"raan_deg":208.2569,"arg_perigee_deg":73.9882,"mean_anomaly_deg":286.1301,"bstar":2.8477e-5,"rev_number":25251,"period_min":93.786764839231,"perigee_km":458.62299267538,"apogee_km":460.85487538024,"semimajor_km":6837.8759340278,"source":"CELESTRAK","updated_at":"2026-09-20T09:00:39.947531Z"}}